Flag for Canada Weather past 2 weeks in Greater Sudbury, Ontario, Canada

Now
68 °F

Low clouds.


Feels Like: 68 °F
Forecast: 60 / 73 °F
Wind: 15 mph from South

Location: Sudbury

Current Time: Aug 30, 2014 at 12:50:15 PM

Latest Report: Aug 30, 2014 at 12:00 PM


Visibility: 20 mi

Pressure: 29.88 "Hg

Humidity: 88%

Dew point: 64 °F

Location of Greater SudburyLocation

Historic Weather in Greater Sudbury — Graph

°F

Greater Sudbury temperature yesterday

Maximum temperature yesterday: 68 °F (at 1:00 PM)
Minimum temperature yesterday: 48 °F (at 6:00 AM)
Average temperature yesterday: 58 °F

Past Weeks' High & Low Weather Summary

 TemperatureHumidityPressure
High79 °F (Aug 24, 3:00 PM)100% (Aug 16, 6:00 AM)30.24 "Hg (Aug 16, 6:00 AM)
Low43 °F (Aug 18, 5:00 AM)40% (Aug 28, 6:00 PM)29.72 "Hg (Aug 16, 10:00 AM)
Average62 °F85%30.01 "Hg
* Reported Aug 15 11:00 AM — Aug 30 11:00 AM, Greater Sudbury, Weather by CustomWeather, © 2014

Note: Actual official high and low records may vary slightly from our data, if they occured in-between our weather recording intervals... More about our weather records

Advertising

Greater Sudbury weather history for previous 24 hours

 ConditionsComfort  
Time TempWeatherWind HumidityBarometerVisibility
11:00 AM
Aug 30
64 °FLow clouds.13 mph94%29.91 "Hg20 mi
10:00 AM63 °FSprinkles. Low clouds.9 mph94%29.92 "Hg20 mi
9:00 AM61 °FSprinkles. Low clouds.7 mph100%29.93 "Hg15 mi
8:00 AM59 °FThunderstorms. Fog.8 mph100%29.94 "Hg7 mi
7:00 AM59 °FThunderstorms. Low clouds.15 mph100%29.95 "Hg3 mi
6:00 AM59 °FThunderstorms. Fog.13 mph100%29.95 "Hg2 mi
5:47 AM59 °FThunderstorms. Fog.14 mph100%29.95 "Hg2 mi
5:00 AM59 °FThunderstorms. Fog.18 mph100%29.98 "Hg2 mi
4:46 AM59 °FThunderstorms. Fog.14 mph100%29.98 "Hg2 mi
4:00 AM55 °FThunderstorms. Fog.13 mph100%29.98 "Hg2 mi
3:00 AM57 °FThunderstorms. Overcast.9 mph100%30.01 "Hg8 mi
2:00 AM63 °FThunderstorms. Overcast.15 mph83%29.99 "Hg12 mi
1:46 AM63 °FThunderstorms. Mostly cloudy.16 mph83%30.00 "Hg12 mi
1:00 AM61 °FOvercast.13 mph88%29.98 "Hg12 mi
12:00 AM61 °FMostly cloudy.13 mph83%30.00 "Hg12 mi
11:00 PM
Aug 29
61 °FOvercast.12 mph83%30.01 "Hg15 mi
10:00 PM59 °FLight rain. Overcast.9 mph88%30.02 "Hg15 mi
9:00 PM59 °FLight rain. Overcast.9 mph88%30.04 "Hg15 mi
8:00 PM59 °FOvercast.10 mph82%30.05 "Hg20 mi
7:00 PM61 °FLight rain. Overcast.14 mph72%30.08 "Hg20 mi
6:00 PM63 °FOvercast.15 mph68%30.07 "Hg20 mi
5:00 PM64 °FLight rain. More clouds than sun.15 mph64%30.09 "Hg20 mi
3:00 PM66 °FCloudy.17 mph56%30.13 "Hg15 mi
2:00 PM68 °FBroken clouds.14 mph60%30.14 "Hg20 mi
1:00 PM68 °FBroken clouds.15 mph60%30.14 "Hg20 mi
12:00 PM66 °FBroken clouds.17 mph64%30.16 "Hg20 mi
Weather by CustomWeather, © 2014

See weather overviewHow to use our weather pages